sat.trackr.live / text

‹ back to catalog

STARLINK-11719 [DTC]

NORAD 64071 · 2025-107H

PAYLOAD ACTIVE UNKNOWN

§ Identity

Operator
Country
US
Launch date
2025-05-21
Launch site
AFETR
Launch vehicle
Mass (kg)
RCS (m²)

Purposes: comms

External: N2YO · Heavens-Above · Gunter

§ Orbital elements

Epoch: 2026-05-24T23:44:22.413120Z

Period
91.67 min
Inclination
43.0002°
Eccentricity
0.0001511
Mean motion
15.70872761 rev/d
Perigee alt
355.4 km
Apogee alt
357.4 km
Semi-major
6,734.5 km
B*
1.1501e-3
RAAN
358.7132°
Arg perigee
265.4404°
Mean anomaly
94.6291°
Rev number
5,929

§ Raw data

STARLINK-11719 [DTC]1 64071U 25107H   26144.98914830  .00150024  00000+0  11501-2 0  99932 64071  43.0002 358.7132 0001511 265.4404  94.6291 15.70872761 59291

JSON: /api/v1/satellites/64071 · /tle

For live sub-satellite position, see the globe view (requires WebGL).

§ Visibility from observer

Set your observer location to see the next 7 days of passes ≥ 10°. The values pass through the URL so the page stays shareable.

No JS? Fill the form by hand. The geolocation button needs JavaScript.